When you browse on this site, cookies collect data to enhance your experience and personalize the content and advertising you see.
Visit our Privacy Policy to learn more. By continuing to use the site, you agree to this use of cookies and data.
  • In Hungary
  • List of Countries
  • For 7 days
  • Water Temperature
  • Satellite Maps
  • Weather Map
  • News
  • Weather Widgets
  • user-avatar
    Login

    Hourly Weather Dikhil

    Today, 16 November, Friday

    Time Temperature Precipitation Wind Pressure Humidity
    00:00 +27°C° 0 mm 7 mps 717 mmHg 77%
    01:00 +27°C° 0 mm 6 mps 717 mmHg 78%
    02:00 +26°C° 0 mm 6 mps 717 mmHg 78%
    03:00 +26°C° 0 mm 5 mps 717 mmHg 79%
    04:00 +26°C° 0 mm 5 mps 717 mmHg 79%
    05:00 +26°C° 0 mm 5 mps 717 mmHg 79%
    06:00 +26°C° 0 mm 5 mps 718 mmHg 80%
    07:00 +27°C° 0 mm 5 mps 718 mmHg 75%
    08:00 +27°C° 0 mm 5 mps 719 mmHg 71%
    09:00 +28°C° 0 mm 5 mps 719 mmHg 65%
    10:00 +29°C° 0 mm 5 mps 719 mmHg 61%
    11:00 +32°C° 0 mm 5 mps 719 mmHg 56%
    12:00 +33°C° 0 mm 6 mps 718 mmHg 51%
    13:00 +33°C° 0 mm 6 mps 718 mmHg 50%
    14:00 +33°C° 0 mm 6 mps 718 mmHg 49%
    15:00 +34°C° 0 mm 7 mps 717 mmHg 45%
    16:00 +33°C° 0 mm 7 mps 717 mmHg 49%
    17:00 +32°C° 0 mm 7 mps 718 mmHg 53%
    18:00 +30°C° 0 mm 7 mps 718 mmHg 56%
    19:00 +29°C° 0 mm 6 mps 718 mmHg 59%
    20:00 +28°C° 0 mm 6 mps 718 mmHg 62%
    21:00 +28°C° 0 mm 5 mps 719 mmHg 66%
    22:00 +27°C° 0 mm 5 mps 719 mmHg 67%
    23:00 +27°C° 0 mm 4 mps 719 mmHg 69%

    Tomorrow, 17 November, Saturday

    Time Temperature Precipitation Wind Pressure Humidity
    00:00 +27°C° 0 mm 4 mps 719 mmHg 71%
    01:00 +26°C° 0 mm 4 mps 719 mmHg 72%
    02:00 +26°C° 0 mm 3 mps 719 mmHg 74%
    03:00 +26°C° 0 mm 3 mps 718 mmHg 75%
    04:00 +26°C° 0 mm 3 mps 719 mmHg 76%
    05:00 +25°C° 0 mm 2 mps 719 mmHg 77%
    06:00 +25°C° 0 mm 2 mps 719 mmHg 78%
    07:00 +26°C° 0 mm 2 mps 719 mmHg 72%
    08:00 +27°C° 0 mm 2 mps 720 mmHg 66%
    09:00 +28°C° 0 mm 3 mps 720 mmHg 61%
    10:00 +29°C° 0 mm 3 mps 720 mmHg 53%
    11:00 +30°C° 0 mm 3 mps 720 mmHg 45%
    12:00 +33°C° 0 mm 3 mps 719 mmHg 37%
    13:00 +33°C° 0 mm 3 mps 719 mmHg 35%
    14:00 +34°C° 0 mm 4 mps 719 mmHg 33%
    15:00 +35°C° 0 mm 4 mps 718 mmHg 31%
    16:00 +34°C° 0 mm 5 mps 718 mmHg 35%
    17:00 +33°C° 0 mm 5 mps 718 mmHg 40%
    18:00 +32°C° 0 mm 6 mps 718 mmHg 44%
    19:00 +30°C° 0 mm 5 mps 718 mmHg 48%
    20:00 +29°C° 0 mm 5 mps 719 mmHg 52%
    21:00 +28°C° 0 mm 4 mps 719 mmHg 56%
    22:00 +28°C° 0 mm 4 mps 719 mmHg 58%
    23:00 +27°C° 0 mm 4 mps 719 mmHg 60%

    Day after tomorrow, 18 November, Sunday

    Time Temperature Precipitation Wind Pressure Humidity
    00:00 +27°C° 0 mm 3 mps 719 mmHg 62%
    01:00 +26°C° 0 mm 3 mps 719 mmHg 64%
    02:00 +26°C° 0 mm 3 mps 718 mmHg 66%
    03:00 +25°C° 0 mm 2 mps 718 mmHg 69%
    04:00 +25°C° 0 mm 2 mps 718 mmHg 70%
    05:00 +24°C° 0 mm 2 mps 718 mmHg 72%
    06:00 +24°C° 0 mm 2 mps 718 mmHg 74%
    07:00 +25°C° 0 mm 2 mps 719 mmHg 65%
    08:00 +26°C° 0 mm 2 mps 719 mmHg 56%
    09:00 +28°C° 0 mm 3 mps 720 mmHg 47%
    10:00 +29°C° 0 mm 3 mps 720 mmHg 40%
    11:00 +32°C° 0 mm 4 mps 720 mmHg 33%
    12:00 +33°C° 0 mm 4 mps 719 mmHg 26%
    13:00 +34°C° 0 mm 5 mps 719 mmHg 25%
    14:00 +34°C° 0 mm 5 mps 718 mmHg 25%
    15:00 +35°C° 0 mm 6 mps 717 mmHg 24%
    16:00 +34°C° 0 mm 6 mps 717 mmHg 29%
    17:00 +33°C° 0 mm 6 mps 717 mmHg 33%
    18:00 +32°C° 0 mm 6 mps 717 mmHg 38%
    19:00 +30°C° 0 mm 5 mps 718 mmHg 43%
    20:00 +29°C° 0 mm 5 mps 718 mmHg 47%
    21:00 +28°C° 0 mm 4 mps 719 mmHg 52%
    22:00 +27°C° 0 mm 4 mps 719 mmHg 54%
    23:00 +27°C° 0 mm 3 mps 719 mmHg 57%

    19 November, Monday

    Time Temperature Precipitation Wind Pressure Humidity
    00:00 +26°C° 0 mm 3 mps 718 mmHg 60%
    01:00 +26°C° 0 mm 3 mps 718 mmHg 63%
    02:00 +25°C° 0 mm 3 mps 718 mmHg 66%
    03:00 +25°C° 0 mm 3 mps 717 mmHg 68%
    04:00 +25°C° 0 mm 2 mps 718 mmHg 70%
    05:00 +24°C° 0 mm 2 mps 718 mmHg 71%
    06:00 +24°C° 0 mm 2 mps 718 mmHg 73%
    07:00 +25°C° 0 mm 3 mps 719 mmHg 63%
    08:00 +27°C° 0 mm 4 mps 719 mmHg 54%
    09:00 +28°C° 0 mm 4 mps 720 mmHg 45%
    10:00 +30°C° 0 mm 5 mps 720 mmHg 40%
    11:00 +32°C° 0 mm 6 mps 720 mmHg 35%
    12:00 +34°C° 0 mm 6 mps 719 mmHg 30%
    13:00 +34°C° 0 mm 7 mps 719 mmHg 30%
    14:00 +34°C° 0 mm 7 mps 718 mmHg 31%
    15:00 +34°C° 0 mm 8 mps 717 mmHg 32%
    16:00 +33°C° 0 mm 7 mps 717 mmHg 35%
    17:00 +32°C° 0 mm 7 mps 718 mmHg 39%
    18:00 +30°C° 0 mm 7 mps 718 mmHg 42%
    19:00 +29°C° 0 mm 6 mps 718 mmHg 45%
    20:00 +29°C° 0 mm 6 mps 719 mmHg 48%
    21:00 +28°C° 0 mm 5 mps 719 mmHg 51%
    22:00 +27°C° 0 mm 4 mps 719 mmHg 52%
    23:00 +27°C° 0 mm 4 mps 719 mmHg 53%

    20 November, Tuesday

    Time Temperature Precipitation Wind Pressure Humidity
    00:00 +26°C° 0 mm 3 mps 719 mmHg 54%
    01:00 +26°C° 0 mm 3 mps 718 mmHg 57%
    02:00 +25°C° 0 mm 3 mps 718 mmHg 60%
    03:00 +25°C° 0 mm 2 mps 718 mmHg 62%
    04:00 +24°C° 0 mm 2 mps 718 mmHg 65%
    05:00 +24°C° 0 mm 2 mps 718 mmHg 68%
    06:00 +23°C° 0 mm 2 mps 719 mmHg 71%
    07:00 +25°C° 0 mm 3 mps 719 mmHg 63%
    08:00 +26°C° 0 mm 4 mps 720 mmHg 55%
    09:00 +28°C° 0 mm 5 mps 721 mmHg 47%
    10:00 +29°C° 0 mm 5 mps 720 mmHg 41%
    11:00 +30°C° 0 mm 6 mps 720 mmHg 35%
    12:00 +33°C° 0 mm 6 mps 719 mmHg 30%
    13:00 +33°C° 0 mm 6 mps 719 mmHg 28%
    14:00 +34°C° 0 mm 7 mps 718 mmHg 27%
    15:00 +34°C° 0 mm 7 mps 718 mmHg 26%
    16:00 +33°C° 0 mm 7 mps 718 mmHg 29%
    17:00 +32°C° 0 mm 7 mps 718 mmHg 32%
    18:00 +30°C° 0 mm 6 mps 718 mmHg 35%
    19:00 +29°C° 0 mm 6 mps 719 mmHg 38%
    20:00 +29°C° 0 mm 5 mps 719 mmHg 42%
    21:00 +28°C° 0 mm 4 mps 720 mmHg 45%
    22:00 +27°C° 0 mm 4 mps 720 mmHg 48%
    23:00 +27°C° 0 mm 3 mps 719 mmHg 50%

    21 November, Wednesday

    Time Temperature Precipitation Wind Pressure Humidity
    00:00 +26°C° 0 mm 3 mps 719 mmHg 53%
    01:00 +26°C° 0 mm 3 mps 719 mmHg 55%
    02:00 +25°C° 0 mm 2 mps 718 mmHg 58%
    03:00 +25°C° 0 mm 2 mps 718 mmHg 60%
    04:00 +25°C° 0 mm 2 mps 718 mmHg 62%
    05:00 +24°C° 0 mm 2 mps 719 mmHg 63%
    06:00 +24°C° 0 mm 2 mps 719 mmHg 65%
    07:00 +25°C° 0 mm 3 mps 720 mmHg 58%
    08:00 +27°C° 0 mm 3 mps 720 mmHg 50%
    09:00 +28°C° 0 mm 4 mps 721 mmHg 42%
    10:00 +30°C° 0 mm 4 mps 720 mmHg 38%
    11:00 +32°C° 0 mm 5 mps 720 mmHg 34%
    12:00 +33°C° 0 mm 5 mps 720 mmHg 29%
    13:00 +34°C° 0 mm 6 mps 719 mmHg 29%
    14:00 +34°C° 0 mm 6 mps 718 mmHg 29%
    15:00 +35°C° 0 mm 7 mps 718 mmHg 28%
    16:00 +34°C° 0 mm 7 mps 718 mmHg 31%
    17:00 +33°C° 0 mm 6 mps 718 mmHg 33%
    18:00 +32°C° 0 mm 6 mps 719 mmHg 36%
    19:00 +30°C° 0 mm 5 mps 719 mmHg 38%
    20:00 +29°C° 0 mm 5 mps 719 mmHg 40%
    21:00 +28°C° 0 mm 4 mps 720 mmHg 43%
    22:00 +28°C° 0 mm 4 mps 720 mmHg 45%
    23:00 +27°C° 0 mm 3 mps 719 mmHg 47%
    Show more